Weather History for St. Francis, KS

Change the Weather History Date:

Monday, October 21, 2013

  Actual Average Record
Temperature  
Mean Temperature 45 °F -  
Max Temperature 61 °F 68 °F 81 °F (2014)
Min Temperature 30 °F 35 °F 30 °F (2013)
Degree Days  
Heating Degree Days 20    
Moisture  
Dew Point 30 °F    
Average Humidity 62    
Maximum Humidity 94    
Minimum Humidity 25    
Precipitation  
Precipitation 0.00 in - - ()
Sea Level Pressure  
Sea Level Pressure 30.10 in    
Wind  
Wind Speed 8 mph (West)    
Max Wind Speed 21 mph    
Max Gust Speed 31 mph    
Visibility 10 miles    
Events      
Averages and records for this station are not official NWS values.
T = Trace of Precipitation, MM = Missing Value Source: NWS Daily Summary

Daily Weather History Graph

Daily Weather History Graph

Search for Another Location

Airport:

Trip Planner

Search our weather history database for the weather conditions in past years. The results will help you decide how hot, cold, wet, or windy it might be!

Date:

Astronomy

Oct. 21, 2013 Rise Set
Actual Time 8:04 AM CDT 6:58 PM CDT
Civil Twilight 7:36 AM CDT 7:26 PM CDT
Nautical Twilight 7:05 AM CDT 7:57 PM CDT
Astronomical Twilight 6:33 AM CDT 8:28 PM CDT
Moon 8:53 PM CDT (10/21) 10:40 AM CDT (10/21)
Length of Visible Light 11h 49m
Length of Day
10h 54m
Waning Gibbous, 92% of the Moon is Illuminated
Oct 21
Waning Gibbous
Oct 26
Last Quarter
Nov 3
New
Nov 9
First Quarter
Nov 17
Full

Hourly Weather History & Observations

Time (CDT) Temp. Windchill Dew Point Humidity Pressure Visibility Wind Dir Wind Speed Gust Speed Precip Events Conditions
12:15 AM 36.7 °F 32.0 °F 30.7 °F 79% 30.12 in 10.0 mi WSW 5.8 mph - N/A   Clear
12:35 AM 34.3 °F 27.7 °F 30.6 °F 86% 30.12 in 10.0 mi SW 8.1 mph - N/A   Clear
12:55 AM 33.4 °F 28.1 °F 30.2 °F 88% 30.12 in 10.0 mi WSW 5.8 mph - N/A   Clear
1:15 AM 33.3 °F 27.9 °F 30.4 °F 89% 30.12 in 10.0 mi WSW 5.8 mph - N/A   Clear
1:35 AM 34.5 °F 30.4 °F 31.1 °F 87% 30.12 in 10.0 mi WSW 4.6 mph - N/A   Clear
1:55 AM 33.8 °F 28.6 °F 30.6 °F 88% 30.13 in 10.0 mi WSW 5.8 mph - N/A   Scattered Clouds
2:15 AM 32.0 °F - 29.5 °F 90% 30.12 in 10.0 mi Calm Calm - N/A   Scattered Clouds
2:35 AM 32.4 °F 26.9 °F 29.5 °F 89% 30.13 in 10.0 mi SW 5.8 mph - N/A   Clear
2:55 AM 32.9 °F 29.8 °F 30.6 °F 91% 30.12 in 10.0 mi SW 3.5 mph - N/A   Clear
3:15 AM 32.4 °F 27.9 °F 30.2 °F 92% 30.13 in 10.0 mi SSW 4.6 mph - N/A   Clear
3:35 AM 32.0 °F 25.6 °F 29.1 °F 89% 30.13 in 10.0 mi SW 6.9 mph - N/A   Clear
3:55 AM 32.0 °F 26.4 °F 29.8 °F 92% 30.13 in 10.0 mi WSW 5.8 mph - N/A   Clear
4:15 AM 30.7 °F 23.3 °F 28.4 °F 91% 30.13 in 10.0 mi WSW 8.1 mph - N/A   Clear
4:35 AM 30.9 °F 24.3 °F 29.1 °F 93% 30.12 in 10.0 mi SSW 6.9 mph - N/A   Clear
4:55 AM 32.0 °F 24.8 °F 30.2 °F 93% 30.12 in 10.0 mi SW 8.1 mph - N/A   Clear
5:15 AM 31.1 °F 23.7 °F 29.3 °F 93% 30.13 in 10.0 mi WSW 8.1 mph - N/A   Clear
5:35 AM 30.6 °F 23.1 °F 28.9 °F 94% 30.13 in 10.0 mi SW 8.1 mph - N/A   Clear
5:55 AM 31.1 °F 23.7 °F 29.3 °F 93% 30.13 in 10.0 mi SW 8.1 mph - N/A   Clear
6:15 AM 32.0 °F 25.6 °F 30.2 °F 93% 30.13 in 10.0 mi SW 6.9 mph - N/A   Clear
6:35 AM 31.8 °F 24.6 °F 30.0 °F 93% 30.13 in 10.0 mi SW 8.1 mph - N/A   Clear
6:55 AM 31.8 °F 24.6 °F 29.8 °F 92% 30.14 in 10.0 mi SW 8.1 mph - N/A   Clear
7:15 AM 31.5 °F 24.2 °F 29.5 °F 92% 30.14 in 10.0 mi SW 8.1 mph - N/A   Clear
7:35 AM 30.9 °F 23.5 °F 28.9 °F 92% 30.13 in 10.0 mi SW 8.1 mph - N/A   Clear
7:55 AM 30.7 °F 22.0 °F 28.8 °F 92% 30.13 in 10.0 mi SW 10.4 mph - N/A   Clear
8:15 AM 31.5 °F 23.5 °F 29.3 °F 92% 30.14 in 10.0 mi SW 9.2 mph - N/A   Clear
8:35 AM 32.0 °F 24.2 °F 29.7 °F 91% 30.15 in 10.0 mi WSW 9.2 mph - N/A   Clear
8:55 AM 32.7 °F 25.7 °F 30.9 °F 93% 30.15 in 7.0 mi WSW 8.1 mph - N/A   Clear
9:15 AM 34.3 °F 27.7 °F 32.0 °F 91% 30.15 in 7.0 mi WSW 8.1 mph - N/A   Scattered Clouds
9:35 AM 36.9 °F 30.1 °F 33.1 °F 86% 30.15 in 10.0 mi WSW 9.2 mph - N/A   Clear
9:55 AM 39.6 °F 34.0 °F 34.3 °F 82% 30.15 in 10.0 mi West 8.1 mph - N/A   Clear
10:15 AM 43.2 °F 37.9 °F 35.6 °F 75% 30.15 in 10.0 mi West 9.2 mph - N/A   Clear
10:35 AM 45.7 °F 41.5 °F 35.4 °F 67% 30.15 in 10.0 mi West 8.1 mph - N/A   Clear
10:55 AM 49.1 °F - 33.1 °F 54% 30.14 in 10.0 mi West 8.1 mph - N/A   Clear
11:15 AM 50.9 °F - 31.1 °F 47% 30.13 in 10.0 mi West 12.7 mph - N/A   Clear
11:35 AM 52.5 °F - 30.7 °F 43% 30.14 in 10.0 mi West 10.4 mph - N/A   Clear
11:55 AM 53.1 °F - 28.2 °F 38% 30.13 in 10.0 mi West 11.5 mph - N/A   Clear
12:15 PM 55.0 °F - 28.0 °F 35% 30.12 in 10.0 mi West 13.8 mph 17.3 mph N/A   Clear
12:35 PM 55.6 °F - 28.6 °F 36% 30.12 in 10.0 mi West 16.1 mph 21.9 mph N/A   Clear
12:55 PM 57.4 °F - 26.8 °F 31% 30.11 in 10.0 mi WNW 17.3 mph 21.9 mph N/A   Clear
1:15 PM 56.7 °F - 27.0 °F 32% 30.10 in 10.0 mi WNW 16.1 mph 20.7 mph N/A   Mostly Cloudy
1:35 PM 59.7 °F - 26.2 °F 28% 30.09 in 10.0 mi West 17.3 mph 23.0 mph N/A   Mostly Cloudy
1:55 PM 60.3 °F - 26.2 °F 27% 30.08 in 10.0 mi West 18.4 mph - N/A   Mostly Cloudy
2:15 PM 59.9 °F - 25.3 °F 27% 30.08 in 10.0 mi WNW 20.7 mph 25.3 mph N/A   Mostly Cloudy
2:35 PM 60.8 °F - 24.8 °F 25% 30.07 in 10.0 mi NW 13.8 mph 24.2 mph N/A   Mostly Cloudy
2:55 PM 59.5 °F - 25.0 °F 27% 30.07 in 10.0 mi NW 16.1 mph 20.7 mph N/A   Mostly Cloudy
3:15 PM 60.4 °F - 24.4 °F 25% 30.06 in 10.0 mi NW 16.1 mph 31.1 mph N/A   Overcast
3:35 PM 59.9 °F - 24.4 °F 26% 30.06 in 10.0 mi NW 15.0 mph 23.0 mph N/A   Mostly Cloudy
3:55 PM 60.6 °F - 24.4 °F 25% 30.05 in 10.0 mi WNW 16.1 mph 23.0 mph N/A   Scattered Clouds
4:15 PM 60.6 °F - 24.3 °F 25% 30.05 in 10.0 mi NW 13.8 mph 19.6 mph N/A   Scattered Clouds
4:35 PM 59.4 °F - 25.9 °F 28% 30.05 in 10.0 mi NW 12.7 mph 24.2 mph N/A   Mostly Cloudy
4:55 PM 60.3 °F - 26.6 °F 28% 30.04 in 10.0 mi NW 13.8 mph - N/A   Mostly Cloudy
5:15 PM 59.5 °F - 27.0 °F 29% 30.04 in 10.0 mi WNW 15.0 mph 19.6 mph N/A   Mostly Cloudy
5:35 PM 59.2 °F - 26.6 °F 29% 30.04 in 10.0 mi WNW 13.8 mph - N/A   Mostly Cloudy
5:55 PM 56.8 °F - 28.4 °F 34% 30.04 in 10.0 mi NNW 6.9 mph - N/A   Scattered Clouds
6:15 PM 57.9 °F - 28.9 °F 33% 30.04 in 10.0 mi NW 5.8 mph - N/A   Scattered Clouds
6:35 PM 56.8 °F - 29.5 °F 35% 30.04 in 10.0 mi NW 5.8 mph - N/A   Scattered Clouds
6:55 PM 55.0 °F - 29.5 °F 38% 30.04 in 10.0 mi NW 6.9 mph - N/A   Scattered Clouds
7:15 PM 52.2 °F - 30.0 °F 43% 30.04 in 10.0 mi NW 5.8 mph - N/A   Scattered Clouds
7:35 PM 52.7 °F - 31.1 °F 44% 30.04 in 10.0 mi WNW 5.8 mph - N/A   Mostly Cloudy
7:55 PM 52.2 °F - 31.1 °F 45% 30.05 in 10.0 mi West 4.6 mph - N/A   Overcast
8:15 PM 51.6 °F - 31.3 °F 46% 30.05 in 10.0 mi Calm Calm - N/A   Overcast
8:35 PM 48.2 °F - 32.9 °F 55% 30.05 in 10.0 mi SW 4.6 mph - N/A   Mostly Cloudy
8:55 PM 48.0 °F - 33.8 °F 58% 30.05 in 10.0 mi SW 5.8 mph - N/A   Mostly Cloudy
9:15 PM 47.5 °F - 33.8 °F 59% 30.06 in 10.0 mi SW 8.1 mph - N/A   Mostly Cloudy
9:35 PM 47.3 °F - 34.0 °F 60% 30.06 in 10.0 mi SW 6.9 mph - N/A   Overcast
9:55 PM 46.6 °F - 33.8 °F 61% 30.06 in 10.0 mi SW 6.9 mph - N/A   Mostly Cloudy
10:15 PM 47.3 °F - 33.1 °F 58% 30.07 in 10.0 mi SW 5.8 mph - N/A   Mostly Cloudy
10:35 PM 47.3 °F - 32.9 °F 57% 30.07 in 10.0 mi WSW 5.8 mph - N/A   Mostly Cloudy
10:55 PM 47.5 °F - 33.1 °F 57% 30.08 in 10.0 mi WSW 5.8 mph - N/A   Overcast
11:15 PM 46.9 °F - 33.8 °F 60% 30.09 in 10.0 mi West 5.8 mph - N/A   Overcast
11:35 PM 45.7 °F 41.5 °F 34.7 °F 65% 30.08 in 10.0 mi SW 8.1 mph - N/A   Light Drizzle
11:55 PM 45.5 °F - 35.6 °F 68% 30.08 in 10.0 mi Calm Calm - N/A   Mostly Cloudy